Wind_Speed
60 62 63 65 65 65 67 66 66 66 64 63 62 61 61 58 55 51 49 42 44 44 44 40 37 37 41 41 41 42 40 41 41 41 39 37 31 24 23 28 31 29 29
60 60 60 58 56 56 56 57 57 58 58 58 57 58 57 55 48 51 48 49 45 47 48 44 42 45 41 40 37 36 34 34 34 32 32 25 17 18 17 20 22 20 19
54 54 55 54 54 54 53 49 44 40 39 36 37 37 38 42 42 42 44 44 42 32 44 43 47 39 35 31 32 30 27 25 24 19 16 14 13 16 18 18 17 15 17
53 53 51 50 47 44 41 37 33 30 29 29 27 29 32 32 30 32 35 37 38 37 35 37 36 27 24 26 21 21 21 19 16 15 15 16 16 16 18 20 21 20 19
42 38 34 33 33 33 29 26 23 21 22 23 22 23 24 22 22 27 33 29 34 28 26 22 23 26 25 13 18 24 20 15 13 15 16 15 16 17 17 22 20 18 17
28 25 24 23 23 22 20 17 16 14 13 14 13 17 16 16 21 24 27 29 25 24 23 21 20 14 15 16 15 18 18 9 9 16 12 13 15 18 16 18 18 15 15
23 19 18 17 16 14 13 11 11 10 10 9 7 8 7 9 12 14 16 17 14 12 14 17 15 18 14 16 17 14 13 12 4 8 10 14 13 14 14 14 16 16 14
17 16 15 15 16 14 13 11 8 7 5 5 6 7 8 11 12 11 10 7 4 7 11 15 12 13 13 7 3 8 6 5 6 10 10 11 12 13 13 14 14 14 15
17 17 19 19 20 19 17 14 12 10 9 8 11 10 9 9 10 12 10 6 3 7 8 7 8 8 6 4 13 9 6 5 8 9 10 12 13 14 14 13 12 12 12
20 22 20 19 20 23 20 18 18 20 20 21 20 19 16 12 12 11 10 12 10 10 8 9 13 20 11 8 8 6 6 9 11 14 13 14 14 15 15 13 11 12 11
21 20 20 21 23 23 25 25 25 26 24 18 16 15 13 11 10 11 11 9 14 14 19 14 11 10 7 6 7 5 6 9 12 14 13 15 16 18 17 12 13 12 11
17 18 21 21 20 20 20 22 22 21 19 17 16 16 18 22 24 26 27 21 19 15 11 11 11 10 9 10 10 8 7 8 11 13 14 16 16 16 15 12 12 13 11
16 18 18 21 22 21 20 22 26 29 30 32 33 32 29 25 23 20 19 18 17 17 18 18 19 19 17 16 15 14 14 13 12 14 17 18 18 17 15 13 11 12 10
26 28 28 28 29 30 33 35 34 34 32 30 27 25 24 23 22 22 22 21 20 19 19 19 19 20 19 19 18 18 19 19 19 19 19 19 19 17 15 12 11 9 8
31 34 35 34 34 34 33 31 29 28 27 26 26 25 23 22 22 22 21 20 20 21 21 19 18 19 19 20 21 22 23 23 23 22 21 20 19 17 15 12 11 10 7
30 31 30 30 29 28 28 27 27 27 26 25 24 23 21 21 22 21 21 21 21 21 18 18 19 21 22 24 25 26 25 25 25 25 23 21 19 17 14 13 13 11 9
26 28 27 26 26 26 26 26 24 24 22 21 21 21 21 21 21 20 20 21 20 19 18 20 22 23 24 24 25 26 26 27 27 26 22 19 17 16 15 13 12 12 9
24 25 24 23 23 23 23 22 21 20 20 20 21 21 21 21 20 20 20 20 18 19 20 21 21 22 23 24 25 26 27 27 27 28 23 20 18 16 16 13 12 12 8
21 20 20 21 21 21 20 19 19 19 20 20 20 19 19 20 19 18 18 17 18 18 19 20 21 22 23 25 27 28 29 29 29 29 25 21 19 16 16 14 11 12 8
18 17 18 18 18 18 18 18 19 19 19 19 19 19 20 19 15 16 17 18 18 18 19 19 21 22 24 26 28 30 31 31 31 29 27 23 20 17 15 13 11 10 7
16 16 15 15 16 16 16 17 17 18 18 18 17 17 18 17 17 17 18 17 18 18 19 21 22 23 23 25 27 29 31 32 32 31 28 24 22 17 15 13 12 9 7
14 14 13 13 14 15 15 15 15 16 16 17 17 18 18 17 18 18 18 18 18 19 19 20 20 22 23 24 26 28 30 31 33 32 28 26 21 17 16 15 11 9 8
12 11 11 11 12 12 13 13 14 15 16 17 17 18 17 17 18 18 18 18 18 19 20 21 22 23 25 26 27 27 29 31 34 34 30 27 20 17 17 16 12 11 9
11 10 10 11 11 11 11 12 13 14 15 16 16 16 16 17 17 17 17 17 18 18 19 20 21 23 25 26 27 27 27 30 33 34 30 24 22 20 19 14 13 13 12
9 9 9 9 9 10 11 12 13 13 14 14 15 16 16 16 16 16 16 16 17 17 18 20 21 23 25 26 26 26 27 29 31 33 29 24 21 22 21 16 15 13 12
9 9 9 9 10 10 10 11 12 12 13 14 14 14 15 15 15 15 15 16 16 17 19 20 22 23 24 24 25 26 26 27 30 31 30 25 23 21 20 17 15 14 14
Wind_Direction
284 283 282 281 279 277 277 275 274 273 272 272 273 273 273 274 274 269 277 279 279 279 277 275 271 274 285 293 294 287 289 294 293 294 296 298 293 288 288 291 293 292 290
293 292 291 290 288 286 281 277 274 273 273 273 272 273 274 274 266 269 272 276 271 277 280 283 287 294 277 286 288 285 287 288 289 290 293 292 288 296 297 301 303 303 307
299 298 297 297 296 294 292 288 281 275 272 272 272 272 272 271 269 272 272 273 278 273 287 280 290 289 283 279 280 282 288 287 288 287 284 290 305 311 308 302 303 310 321
301 300 300 300 302 302 298 294 287 279 273 273 276 275 272 273 276 275 276 277 281 283 292 286 284 295 290 284 287 288 286 271 282 291 293 300 305 309 310 305 301 302 305
304 305 306 308 311 313 307 301 293 282 274 272 276 274 272 266 259 266 275 272 293 290 293 294 296 296 289 276 276 289 272 256 279 290 295 303 303 302 306 300 298 302 304
317 316 318 324 330 333 329 319 304 296 280 273 276 275 270 264 267 278 276 279 290 287 289 289 289 287 283 275 307 294 298 271 277 298 297 294 301 302 303 293 299 304 303
341 343 346 347 345 338 330 323 319 307 288 288 278 280 299 316 300 294 294 289 290 293 286 288 290 286 303 319 311 291 278 274 305 305 300 313 311 303 300 308 304 305 309
8 12 14 10 8 2 359 1 354 348 352 356 334 320 320 301 300 303 302 301 305 307 286 276 268 287 315 300 3 24 51 37 352 320 336 338 325 319 313 305 302 305 311
35 39 42 43 39 35 40 41 42 49 59 54 41 27 18 41 57 59 57 51 339 315 302 265 307 320 328 52 60 33 357 356 6 343 346 344 338 331 320 314 313 311 313
53 57 53 45 46 48 53 59 65 69 68 66 67 61 57 51 58 51 55 27 1 330 320 352 57 64 48 20 14 13 9 8 359 352 351 351 344 337 334 324 318 321 321
56 57 57 58 58 58 63 71 74 74 68 68 71 70 64 60 52 48 48 38 66 66 76 59 49 41 20 5 12 6 357 351 352 350 339 340 342 339 340 332 318 326 329
54 53 49 50 54 60 67 70 70 68 63 63 59 55 56 61 67 73 78 79 80 81 73 51 41 40 38 33 28 23 5 354 349 343 332 336 339 341 339 330 318 315 334
52 59 61 64 57 55 65 68 73 76 78 79 80 80 77 72 66 61 61 65 62 56 52 47 44 39 34 31 30 25 18 10 0 345 341 340 342 344 343 338 331 328 335
73 73 72 72 75 79 82 81 81 80 76 69 70 69 66 64 65 65 63 63 61 58 55 51 46 42 40 37 34 30 25 17 7 360 354 351 349 345 345 347 347 347 348
78 79 80 81 80 79 76 76 76 73 72 73 73 71 71 71 69 66 63 61 58 56 52 48 44 41 39 37 34 31 25 19 11 5 1 360 0 1 3 4 4 4 11
79 80 75 73 73 74 75 75 76 75 75 74 72 72 69 67 66 65 62 57 53 51 47 43 40 38 35 33 29 25 21 16 12 7 4 4 6 9 12 8 5 10 11
75 74 73 73 74 76 76 77 76 74 73 72 71 69 67 62 59 56 54 50 44 43 42 41 37 34 31 28 25 21 18 15 12 8 8 6 6 7 9 10 14 12 12
75 75 77 78 78 77 77 76 73 69 67 66 64 61 59 56 52 49 46 42 39 36 37 36 34 31 29 26 22 21 20 16 13 11 9 8 6 6 8 8 12 18 27
72 75 78 80 80 78 77 74 69 63 57 53 52 52 52 50 43 41 40 36 36 34 34 34 31 29 26 25 25 22 19 17 15 14 13 11 9 8 8 8 11 17 33
77 76 76 77 75 73 69 64 61 57 52 47 44 44 44 42 33 32 31 32 32 34 34 33 31 30 27 26 25 22 20 17 15 14 14 13 11 9 9 13 15 19 46
73 72 70 72 72 69 64 61 56 51 46 43 40 39 40 34 29 29 29 30 33 34 33 32 31 29 25 23 22 20 17 15 14 12 12 12 10 15 16 18 21 35 63
69 68 65 65 64 62 59 53 50 46 42 38 35 35 33 30 28 28 30 32 34 35 34 34 32 27 23 19 17 16 15 15 14 13 13 11 14 23 26 24 34 57 71
64 65 67 67 65 59 55 50 45 39 36 33 31 30 28 27 28 29 31 33 35 34 32 29 27 25 22 17 13 13 13 14 15 14 16 20 30 35 29 31 54 65 81
55 56 57 58 57 55 50 43 38 34 32 30 28 27 25 26 26 28 30 31 32 31 30 28 24 20 19 16 12 12 14 15 16 16 21 30 34 33 25 46 62 75 78
57 56 52 50 51 48 42 37 30 25 26 25 24 23 22 22 22 22 22 23 24 24 21 18 17 15 16 16 13 16 18 17 18 19 23 28 27 32 43 57 68 67 75
55 50 46 42 41 38 33 28 24 17 16 19 18 18 17 16 15 14 13 14 14 13 13 12 12 13 14 15 15 16 19 18 20 21 23 29 33 38 41 55 64 67 78
Height
3091 3087 3082 3078 3074 3069 3064 3061 3058 3055 3054 3054 3053 3051 3051 3051 3050 3049 3047 3046 3042 3041 3039 3037 3037 3036 3035 3033 3030 3026 3023 3020 3014 3011 3008 3009 3008 3004 3000 2997 2994 2991 2988
3070 3065 3060 3056 3052 3049 3046 3043 3041 3039 3038 3038 3038 3037 3037 3036 3037 3037 3037 3035 3032 3031 3030 3029 3027 3024 3024 3021 3020 3017 3014 3011 3007 3005 3002 3002 3000 2997 2994 2992 2989 2984 2980
3053 3048 3043 3040 3035 3030 3025 3023 3023 3023 3023 3024 3024 3025 3025 3024 3025 3026 3025 3024 3023 3017 3020 3018 3017 3014 3012 3011 3010 3008 3005 3003 3002 2999 2998 2997 2995 2992 2990 2987 2984 2980 2976
3040 3035 3030 3026 3020 3015 3011 3008 3008 3010 3011 3012 3014 3014 3013 3014 3015 3015 3014 3014 3013 3013 3011 3009 3008 3006 3004 3003 3002 3001 2999 2998 2997 2995 2994 2992 2989 2987 2985 2982 2979 2976 2973
3030 3025 3022 3017 3012 3007 3003 3001 3001 3001 3002 3004 3005 3006 3006 3007 3008 3009 3009 3008 3007 3006 3006 3003 3002 3000 2998 2997 2997 2996 2994 2991 2992 2991 2989 2986 2984 2982 2978 2977 2975 2971 2968
3024 3020 3016 3012 3008 3003 3000 2998 2998 2998 2998 2999 3000 3001 3001 3002 3003 3003 3004 3003 3002 3001 3000 2998 2996 2995 2993 2991 2990 2990 2988 2988 2988 2988 2984 2982 2979 2977 2974 2974 2971 2967 2965
3018 3015 3012 3010 3006 3002 2999 2997 2995 2995 2995 2996 2997 2998 2998 2999 2999 2999 2998 2999 2997 2996 2994 2993 2992 2991 2989 2988 2988 2986 2985 2985 2985 2983 2982 2979 2976 2974 2972 2969 2967 2964 2961
3018 3015 3012 3008 3005 3002 2999 2998 2996 2995 2995 2996 2997 2997 2996 2997 2997 2996 2996 2994 2993 2992 2992 2992 2992 2990 2988 2987 2985 2986 2985 2984 2984 2983 2980 2977 2975 2972 2969 2967 2964 2961 2958
3021 3017 3014 3010 3007 3004 3001 2999 2997 2997 2997 2997 2997 2997 2997 2997 2996 2996 2996 2995 2994 2994 2994 2993 2992 2990 2989 2987 2987 2987 2987 2985 2983 2981 2978 2975 2972 2970 2967 2964 2961 2959 2956
3025 3021 3019 3016 3013 3008 3005 3003 3002 3001 3002 3002 3002 3002 3001 3000 3000 3000 2999 2998 2998 2997 2996 2996 2993 2992 2992 2991 2990 2989 2987 2985 2982 2980 2977 2974 2971 2968 2964 2961 2958 2956 2954
3031 3028 3025 3022 3019 3016 3013 3011 3010 3009 3009 3009 3008 3007 3006 3005 3004 3003 3003 3002 3001 3001 3000 2999 2997 2996 2995 2993 2991 2989 2987 2984 2982 2979 2976 2973 2970 2966 2962 2958 2955 2954 2952
3036 3034 3031 3028 3026 3023 3021 3019 3017 3017 3016 3015 3013 3012 3011 3010 3009 3008 3008 3008 3007 3006 3004 3002 3000 2998 2996 2994 2991 2989 2986 2984 2981 2978 2975 2971 2968 2964 2960 2957 2954 2951 2949
3040 3038 3035 3033 3031 3028 3026 3025 3023 3022 3021 3020 3020 3019 3018 3017 3016 3015 3014 3013 3012 3010 3008 3005 3003 3000 2997 2995 2992 2989 2986 2983 2980 2977 2973 2969 2964 2961 2957 2954 2952 2949 2947
3045 3042 3040 3038 3036 3035 3035 3033 3032 3031 3030 3029 3028 3027 3025 3024 3023 3021 3020 3018 3016 3014 3012 3009 3006 3004 3001 2998 2994 2991 2987 2984 2980 2976 2971 2966 2962 2959 2955 2953 2950 2948 2946
3051 3049 3047 3046 3045 3043 3042 3041 3040 3039 3037 3036 3035 3033 3032 3031 3029 3027 3026 3024 3021 3018 3015 3013 3011 3008 3004 3000 2997 2993 2989 2984 2980 2975 2970 2965 2961 2958 2954 2952 2949 2947 2946
3059 3057 3056 3055 3053 3052 3050 3049 3047 3046 3045 3043 3042 3041 3039 3037 3034 3033 3030 3028 3025 3022 3020 3017 3014 3010 3006 3002 2998 2994 2990 2985 2981 2975 2969 2965 2961 2958 2955 2952 2949 2947 2945
3066 3064 3063 3062 3060 3059 3057 3056 3055 3054 3052 3051 3048 3046 3044 3041 3040 3037 3034 3031 3029 3027 3023 3019 3016 3012 3008 3005 3001 2996 2991 2986 2981 2976 2971 2967 2963 2959 2956 2953 2950 2948 2945
3072 3070 3069 3068 3066 3065 3064 3063 3061 3060 3059 3056 3054 3051 3048 3046 3044 3041 3038 3035 3033 3030 3026 3022 3019 3015 3012 3008 3004 2999 2994 2989 2983 2978 2972 2967 2963 2960 2956 2953 2950 2948 2946
3079 3078 3076 3074 3073 3072 3070 3068 3067 3065 3063 3060 3058 3055 3052 3050 3047 3045 3042 3039 3035 3032 3029 3026 3022 3019 3015 3011 3007 3002 2996 2991 2985 2979 2974 2969 2964 2960 2957 2953 2951 2949 2948
3084 3083 3081 3079 3078 3076 3075 3073 3071 3069 3066 3064 3062 3059 3056 3053 3052 3049 3045 3041 3038 3035 3032 3029 3026 3022 3018 3014 3009 3004 2999 2993 2987 2981 2975 2971 2966 2961 2958 2955 2952 2950 2949
3088 3087 3086 3084 3082 3081 3079 3077 3075 3072 3070 3068 3065 3062 3060 3057 3054 3051 3047 3044 3041 3038 3035 3032 3029 3025 3021 3017 3013 3008 3002 2996 2989 2983 2977 2972 2967 2962 2959 2956 2954 2952 2951
3092 3091 3090 3088 3086 3084 3082 3080 3078 3076 3074 3071 3069 3066 3063 3060 3057 3054 3050 3047 3044 3041 3038 3035 3032 3029 3025 3020 3015 3010 3005 2999 2992 2986 2979 2973 2968 2964 2961 2958 2955 2954 2954
3096 3095 3093 3091 3089 3087 3086 3084 3082 3079 3077 3074 3072 3069 3066 3063 3060 3057 3054 3051 3047 3044 3041 3038 3035 3031 3027 3022 3017 3013 3008 3001 2994 2988 2981 2975 2970 2967 2964 2961 2958 2957 2957
3098 3097 3096 3094 3092 3090 3089 3087 3084 3082 3080 3077 3074 3072 3069 3066 3063 3060 3057 3054 3051 3048 3045 3042 3038 3034 3030 3025 3020 3015 3010 3004 2998 2991 2985 2979 2975 2971 2967 2964 2963 2962 2961
3101 3100 3098 3097 3095 3093 3091 3089 3086 3084 3082 3079 3077 3074 3072 3069 3066 3063 3060 3057 3054 3051 3048 3044 3041 3036 3032 3028 3023 3018 3013 3008 3002 2996 2989 2984 2980 2976 2972 2969 2968 2967 2966
3103 3102 3100 3099 3097 3095 3093 3091 3088 3086 3084 3081 3079 3076 3073 3071 3068 3065 3062 3059 3056 3053 3049 3046 3042 3038 3034 3030 3025 3021 3016 3011 3006 3000 2994 2989 2985 2981 2977 2975 2973 2972 2971